Location: Sark
(49.4440°N, 2.3620°W)
Time: 21:29:22
(UTC+01:00)

OTV 5 (USA 277) - Visible Passes

Search period start: 18 October 2017 00:00
Search period end: 28 October 2017 00:00
Orbit: 404 x 417 km, 43.0° (Epoch: 07 September)

Date Brightness Start Highest point End Pass type
(mag) Time Alt. Az. Time Alt. Az. Time Alt. Az.
18 Oct ? 19:48:10 10° WSW 19:50:53 23° SSW 19:52:04 19° SSE visible
19 Oct ? 18:57:06 10° WSW 18:59:57 25° S 19:02:47 10° SE visible
19 Oct ? 20:35:02 10° SW 20:36:11 12° SSW 20:36:11 12° SSW visible
20 Oct ? 19:43:34 10° WSW 19:45:43 16° SSW 19:47:35 11° SSE visible
21 Oct ? 18:52:19 10° WSW 18:54:49 19° SSW 18:57:19 10° SSE visible
23 Oct ? 18:48:05 10° SW 18:49:36 13° SSW 18:51:08 10° S visible
